H1 CPF  2  DGF 2024 06 25 10 177 01 etalon1    NONE      
H2  8900103  525    19751 2024 06 25 00 00 00 2024 07 02 00 00 00   120 1 1  0 0 0 1
H5  0.5673
H9
10 0 60487  57600.000000  0      16171479.739     -16906425.853      10297137.966
10 0 60487  57720.000000  0      16066620.811     -16769660.059      10678008.964
10 0 60487  57840.000000  0      15959919.360     -16626563.544      11055209.475
10 0 60487  57960.000000  0      15851514.677     -16477143.561      11428609.873
10 0 60487  58080.000000  0      15741546.331     -16321411.480      11798081.838
10 0 60487  58200.000000  0      15630154.062     -16159382.787      12163498.390
10 0 60487  58320.000000  0      15517477.672     -15991077.084      12524733.936
10 0 60487  58440.000000  0      15403656.913     -15816518.082      12881664.312
10 0 60487  58560.000000  0      15288831.381     -15635733.596      13234166.824
10 0 60487  58680.000000  0      15173140.406     -15448755.533      13582120.290
10 0 60487  58800.000000  0      15056722.944     -15255619.876      13925405.081
10 0 60487  58920.000000  0      14939717.469     -15056366.673      14263903.160
10 0 60487  59040.000000  0      14822261.864     -14851040.012      14597498.122
10 0 60487  59160.000000  0      14704493.314     -14639687.999      14926075.236
10 0 60487  59280.000000  0      14586548.203     -14422362.736      15249521.480
10 0 60487  59400.000000  0      14468562.003     -14199120.290      15567725.582
10 0 60487  59520.000000  0      14350669.174     -13970020.662      15880578.056
10 0 60487  59640.000000  0      14233003.055     -13735127.754      16187971.238
10 0 60487  59760.000000  0      14115695.764     -13494509.330      16489799.326
10 0 60487  59880.000000  0      13998878.094     -13248236.979      16785958.413
10 0 60487  60000.000000  0      13882679.414     -12996386.072      17076346.523
10 0 60487  60120.000000  0      13767227.566     -12739035.712      17360863.645
10 0 60487  60240.000000  0      13652648.769     -12476268.696      17639411.766
10 0 60487  60360.000000  0      13539067.518     -12208171.453      17911894.909
10 0 60487  60480.000000  0      13426606.490     -11934833.999      18178219.159
10 0 60487  60600.000000  0      13315386.452     -11656349.879      18438292.699
10 0 60487  60720.000000  0      13205526.161     -11372816.104      18692025.842
10 0 60487  60840.000000  0      13097142.278     -11084333.099      18939331.058
10 0 60487  60960.000000  0      12990349.276     -10791004.630      19180123.006
10 0 60487  61080.000000  0      12885259.350     -10492937.746      19414318.564
10 0 60487  61200.000000  0      12781982.334     -10190242.706      19641836.856
10 0 60487  61320.000000  0      12680625.613      -9883032.907      19862599.280
10 0 60487  61440.000000  0      12581294.043      -9571424.819      20076529.535
10 0 60487  61560.000000  0      12484089.867      -9255537.900      20283553.647
10 0 60487  61680.000000  0      12389112.637      -8935494.525      20483599.995
10 0 60487  61800.000000  0      12296459.140      -8611419.906      20676599.336
10 0 60487  61920.000000  0      12206223.320      -8283442.006      20862484.829
10 0 60487  62040.000000  0      12118496.207      -7951691.462      21041192.054
10 0 60487  62160.000000  0      12033365.846      -7616301.493      21212659.042
10 0 60487  62280.000000  0      11950917.230      -7277407.817      21376826.291
10 0 60487  62400.000000  0      11871232.233      -6935148.561      21533636.787
10 0 60487  62520.000000  0      11794389.549      -6589664.168      21683036.028
10 0 60487  62640.000000  0      11720464.631      -6241097.305      21824972.036
10 0 60487  62760.000000  0      11649529.627      -5889592.770      21959395.385
10 0 60487  62880.000000  0      11581653.335      -5535297.395      22086259.208
10 0 60487  63000.000000  0      11516901.140      -5178359.948      22205519.221
10 0 60487  63120.000000  0      11455334.968      -4818931.035      22317133.738
10 0 60487  63240.000000  0      11397013.237      -4457162.997      22421063.683
10 0 60487  63360.000000  0      11341990.813      -4093209.813      22517272.604
10 0 60487  63480.000000  0      11290318.966      -3727226.995      22605726.690
10 0 60487  63600.000000  0      11242045.332      -3359371.481      22686394.781
10 0 60487  63720.000000  0      11197213.873      -2989801.535      22759248.379
10 0 60487  63840.000000  0      11155864.847      -2618676.638      22824261.660
10 0 60487  63960.000000  0      11118034.772      -2246157.380      22881411.482
10 0 60487  64080.000000  0      11083756.402      -1872405.356      22930677.395
10 0 60487  64200.000000  0      11053058.699      -1497583.053      22972041.651
10 0 60487  64320.000000  0      11025966.812      -1121853.744      23005489.205
10 0 60487  64440.000000  0      11002502.053       -745381.377      23031007.730
10 0 60487  64560.000000  0      10982681.886       -368330.463      23048587.614
10 0 60487  64680.000000  0      10966519.911          9134.034      23058221.967
10 0 60487  64800.000000  0      10954025.852        386846.805      23059906.630
10 0 60487  64920.000000  0      10945205.548        764642.314      23053640.167
10 0 60487  65040.000000  0      10940060.954       1142354.905      23039423.877
10 0 60487  65160.000000  0      10938590.132       1519818.914      23017261.788
10 0 60487  65280.000000  0      10940787.256       1896868.783      22987160.660
10 0 60487  65400.000000  0      10946642.617       2273339.174      22949129.982
10 0 60487  65520.000000  0      10956142.626       2649065.074      22903181.972
10 0 60487  65640.000000  0      10969269.828       3023881.914      22849331.573
10 0 60487  65760.000000  0      10986002.914       3397625.675      22787596.448
10 0 60487  65880.000000  0      11006316.736       3770133.004      22717996.978
10 0 60487  66000.000000  0      11030182.326       4141241.318      22640556.254
10 0 60487  66120.000000  0      11057566.921       4510788.921      22555300.072
10 0 60487  66240.000000  0      11088433.983       4878615.110      22462256.923
10 0 60487  66360.000000  0      11122743.233       5244560.285      22361457.987
10 0 60487  66480.000000  0      11160450.674       5608466.054      22252937.124
10 0 60487  66600.000000  0      11201508.633       5970175.344      22136730.862
10 0 60487  66720.000000  0      11245865.790       6329532.507      22012878.385
10 0 60487  66840.000000  0      11293467.224       6686383.424      21881421.523
10 0 60487  66960.000000  0      11344254.449       7040575.607      21742404.740
10 0 60487  67080.000000  0      11398165.463       7391958.308      21595875.117
10 0 60487  67200.000000  0      11455134.796       7740382.615      21441882.337
10 0 60487  67320.000000  0      11515093.558       8085701.558      21280478.674
10 0 60487  67440.000000  0      11577969.492       8427770.203      21111718.971
10 0 60487  67560.000000  0      11643687.032       8766445.753      20935660.625
10 0 60487  67680.000000  0      11712167.360       9101587.643      20752363.568
10 0 60487  67800.000000  0      11783328.467       9433057.635      20561890.249
10 0 60487  67920.000000  0      11857085.217       9760719.912      20364305.611
10 0 60487  68040.000000  0      11933349.411      10084441.167      20159677.074
10 0 60487  68160.000000  0      12012029.858      10404090.696      19948074.507
10 0 60487  68280.000000  0      12093032.444      10719540.480      19729570.213
10 0 60487  68400.000000  0      12176260.206      11030665.277      19504238.899
10 0 60487  68520.000000  0      12261613.405      11337342.701      19272157.653
10 0 60487  68640.000000  0      12348989.607      11639453.307      19033405.920
10 0 60487  68760.000000  0      12438283.760      11936880.666      18788065.476
10 0 60487  68880.000000  0      12529388.276      12229511.448      18536220.398
10 0 60487  69000.000000  0      12622193.118      12517235.493      18277957.040
10 0 60487  69120.000000  0      12716585.881      12799945.884      18013364.001
10 0 60487  69240.000000  0      12812451.883      13077539.021      17742532.096
10 0 60487  69360.000000  0      12909674.252      13349914.682      17465554.329
10 0 60487  69480.000000  0      13008134.022      13616976.097      17182525.858
10 0 60487  69600.000000  0      13107710.219      13878630.005      16893543.962
10 0 60487  69720.000000  0      13208279.963      14134786.717      16598708.016
10 0 60487  69840.000000  0      13309718.560      14385360.172      16298119.446
10 0 60487  69960.000000  0      13411899.601      14630267.994      15991881.707
10 0 60487  70080.000000  0      13514695.060      14869431.546      15680100.237
10 0 60487  70200.000000  0      13617975.397      15102775.974      15362882.429
10 0 60487  70320.000000  0      13721609.658      15330230.260      15040337.592
10 0 60487  70440.000000  0      13825465.579      15551727.265      14712576.913
10 0 60487  70560.000000  0      13929409.690      15767203.767      14379713.419
10 0 60487  70680.000000  0      14033307.420      15976600.503      14041861.941
10 0 60487  70800.000000  0      14137023.204      16179862.203      13699139.073
10 0 60487  70920.000000  0      14240420.589      16376937.624      13351663.132
10 0 60487  71040.000000  0      14343362.342      16567779.578      12999554.116
10 0 60487  71160.000000  0      14445710.563      16752344.959      12642933.667
10 0 60487  71280.000000  0      14547326.786      16930594.768      12281925.026
10 0 60487  71400.000000  0      14648072.096      17102494.133      11916652.991
10 0 60487  71520.000000  0      14747807.238      17268012.324      11547243.874
10 0 60487  71640.000000  0      14846392.724      17427122.775      11173825.459
10 0 60487  71760.000000  0      14943688.951      17579803.085      10796526.957
10 0 60487  71880.000000  0      15039556.305      17726035.035      10415478.958
99